Wind_Speed
37 34 38 32 26 17 14 13 11 12 18 22 21 17 17 15 17 13 15 19 23 22 19 17 19 23 21 21 21 17 17 18 16 17 21 17 13 11 11 9 16 5 13 9
35 40 34 28 21 16 14 12 12 18 19 19 20 22 15 12 15 17 18 20 23 24 18 17 17 21 19 19 18 15 15 16 15 19 21 19 14 13 18 13 18 10 11 13
43 34 32 29 27 20 17 16 14 18 19 20 21 17 10 12 13 16 18 19 19 24 18 15 15 19 17 17 16 12 12 14 16 19 26 20 13 15 18 18 13 17 15 9
37 36 26 30 28 23 17 16 18 17 17 14 15 9 14 12 14 13 14 18 22 21 16 13 13 16 14 14 13 9 9 12 14 22 24 23 17 12 15 14 17 22 14 14
40 35 32 30 30 23 19 21 17 19 18 16 10 6 12 14 15 13 13 18 16 13 9 10 11 13 11 11 11 8 6 9 13 17 22 24 20 10 13 13 16 16 15 16
35 31 29 28 24 22 17 17 17 18 12 5 8 8 7 11 15 15 12 16 14 8 7 5 8 10 8 8 8 6 4 8 9 14 16 19 20 19 19 9 9 7 9 16
31 35 32 26 23 22 23 17 8 5 5 6 7 5 13 11 15 14 16 17 10 9 7 1 6 6 7 6 5 4 1 7 7 9 12 12 15 17 21 9 9 6 17 23
31 23 38 28 29 22 22 21 14 5 4 8 6 6 9 20 16 12 16 14 7 11 8 5 4 3 5 4 4 1 1 5 6 5 7 8 11 14 16 15 19 17 26 22
34 30 19 35 28 28 21 19 18 15 10 6 6 11 15 8 12 12 15 7 11 8 6 7 3 2 3 3 4 0 2 4 5 5 6 6 8 11 15 13 19 21 24 27
22 17 32 23 28 30 30 21 12 8 5 7 5 5 13 19 12 11 9 3 8 5 3 7 3 3 2 2 2 2 1 4 5 5 4 5 7 10 13 18 20 21 19 19
39 23 17 30 35 30 21 23 19 14 10 8 8 8 10 6 10 10 6 4 4 8 4 4 6 5 2 1 0 1 1 2 4 5 5 5 7 10 12 13 16 19 15 15
48 32 32 25 23 25 29 27 25 22 13 10 13 19 17 13 11 9 15 8 5 11 9 4 8 6 4 2 1 0 1 3 4 4 4 6 7 9 12 13 10 14 15 14
45 32 25 26 24 26 36 35 32 27 22 20 17 15 12 10 11 11 13 5 5 13 13 4 8 6 7 4 2 1 0 2 4 5 5 6 9 11 11 13 11 13 14 15
46 38 47 36 26 29 25 27 32 29 21 18 23 21 20 17 15 13 18 8 7 11 16 8 5 4 10 6 4 3 2 0 3 7 7 8 9 11 10 11 15 17 17 18
37 45 42 42 32 21 32 31 34 35 29 25 22 23 19 17 15 16 15 11 5 12 12 10 6 4 9 9 5 4 3 3 2 5 8 8 9 10 10 11 14 17 18 18
36 28 35 32 33 34 35 32 32 36 32 33 27 27 20 19 18 17 14 14 9 8 12 13 14 6 3 10 7 5 5 5 4 4 5 7 9 10 11 11 13 15 16 15
38 31 25 25 29 34 40 45 38 39 34 31 28 28 24 24 22 18 14 11 13 13 13 15 11 10 6 3 12 7 7 5 6 5 4 5 8 10 10 10 11 13 15 15
30 28 26 18 16 14 20 30 34 41 35 32 32 27 23 20 21 19 18 17 17 12 14 12 13 12 10 5 12 15 10 8 7 7 6 5 8 9 11 11 11 12 13 14
26 27 20 14 20 15 25 19 24 29 34 34 31 27 26 23 26 24 20 21 20 16 12 14 13 11 13 8 8 17 15 12 9 8 8 8 8 11 11 12 12 14 15 15
28 21 20 18 11 16 20 17 17 18 24 19 25 25 24 23 27 22 18 21 19 18 18 16 15 14 14 14 10 14 18 16 11 9 10 11 10 11 13 14 14 16 17 19
28 22 23 20 11 17 19 20 21 27 14 20 22 21 22 27 20 14 15 23 17 17 23 23 23 17 13 14 12 10 16 18 14 14 12 13 14 13 14 16 15 15 16 16
22 18 20 17 15 19 19 23 34 25 18 20 10 18 16 16 13 20 19 29 20 20 21 28 27 22 19 19 15 12 12 16 21 18 16 15 17 18 17 17 16 14 14 14
26 26 37 23 33 20 12 31 23 16 18 19 16 16 13 19 14 16 21 29 22 22 22 27 25 24 23 21 18 14 10 18 23 24 20 19 18 19 20 19 18 17 16 16
34 22 35 29 47 35 29 16 20 23 25 21 15 17 20 20 19 24 22 22 20 16 14 23 26 24 24 24 22 14 14 13 21 25 25 23 22 21 22 24 23 22 21 19
37 35 34 37 35 24 33 27 18 19 19 18 18 21 16 15 20 28 27 26 24 23 17 17 19 22 23 25 23 18 18 18 17 22 25 26 25 24 23 23 24 23 23 23
26 39 32 37 28 20 25 27 32 25 23 23 21 16 19 20 22 23 22 24 28 32 30 23 21 21 20 24 26 25 21 19 17 17 18 20 23 25 25 25 25 25 26 26
Wind_Direction
212 222 221 223 224 225 245 257 267 294 302 302 305 301 290 300 304 299 296 298 298 304 296 308 322 332 339 349 349 356 357 12 18 30 23 19 13 14 20 355 31 253 212 189
214 221 224 227 227 234 242 255 280 299 298 301 315 303 282 283 291 285 292 297 301 296 289 296 315 330 337 348 349 355 3 23 35 35 30 35 33 40 26 20 45 64 162 176
212 217 224 225 225 230 239 254 284 298 295 297 314 306 284 267 298 288 284 296 303 298 285 287 308 327 335 347 350 359 12 40 44 42 41 40 59 45 43 60 57 77 101 144
218 221 229 226 228 232 237 258 276 292 298 294 306 296 313 301 302 301 294 296 304 306 283 277 300 321 332 346 350 6 23 56 59 54 47 49 49 56 55 73 62 69 75 101
214 220 224 226 230 232 247 264 269 282 289 299 291 261 293 308 311 321 315 306 306 297 266 258 291 316 330 346 352 6 36 66 71 61 59 57 51 61 55 89 84 78 72 90
219 222 229 232 232 237 238 254 266 278 277 261 269 246 292 294 312 312 327 319 296 276 189 232 289 307 329 347 355 360 48 77 79 77 63 59 56 40 36 142 125 92 91 102
213 224 228 224 225 234 237 231 242 246 225 267 277 241 275 310 321 302 318 332 284 187 132 77 296 297 327 347 358 354 53 91 95 81 78 57 47 44 27 78 96 159 90 101
203 214 217 220 222 222 231 225 231 237 241 292 296 239 274 309 319 321 331 328 196 148 93 44 305 284 320 350 7 344 235 104 95 92 94 71 53 44 44 49 85 80 102 107
203 218 217 221 220 224 224 220 236 246 264 264 256 265 295 315 324 336 350 11 173 133 77 34 332 244 305 356 22 63 213 139 111 103 99 85 74 57 58 79 95 89 99 92
211 203 219 215 221 227 227 233 217 213 227 252 231 259 271 307 326 336 5 25 196 156 101 31 346 211 275 343 33 31 217 142 134 133 127 109 88 81 85 90 100 92 102 94
213 209 205 215 216 218 214 218 221 237 233 256 272 268 291 294 318 355 14 26 140 202 155 20 357 210 221 261 356 349 319 186 129 120 133 111 99 101 104 113 116 115 103 101
211 214 215 214 217 227 233 225 227 227 223 235 258 267 276 275 298 335 347 293 195 185 200 269 347 218 201 210 222 342 297 231 151 139 131 119 119 118 118 112 123 131 118 116
200 211 206 226 229 222 218 222 228 235 238 233 243 256 274 269 265 312 346 324 216 197 205 218 353 211 200 196 191 216 19 234 166 152 147 132 129 130 129 124 127 138 128 132
211 212 211 213 232 213 213 217 224 233 227 237 242 255 265 263 257 289 321 284 238 220 214 209 349 217 202 195 189 220 188 186 169 154 155 148 139 132 134 129 128 138 139 140
208 216 221 227 223 213 219 223 227 234 237 233 243 256 263 274 257 290 304 255 232 214 205 224 239 21 206 209 193 215 217 183 167 145 142 150 152 146 143 140 139 137 139 144
204 216 219 224 219 227 233 232 236 249 243 244 245 252 256 256 261 280 281 247 236 230 216 217 215 258 13 213 217 202 219 205 189 166 142 141 147 154 155 155 153 151 149 149
199 204 202 218 221 230 242 237 238 246 236 240 239 250 262 250 259 274 261 265 247 247 244 230 219 224 228 200 213 213 213 214 207 194 179 146 145 144 150 156 164 161 158 156
193 200 208 209 184 218 242 236 239 241 244 245 250 253 262 253 255 265 261 259 246 235 228 199 192 193 215 227 202 211 216 215 214 202 197 170 143 138 141 151 163 167 164 161
193 196 202 205 210 235 236 224 217 220 238 240 245 245 250 256 256 263 251 253 231 217 210 193 191 183 197 205 200 209 215 213 218 208 201 189 168 147 141 142 150 156 158 157
200 197 198 206 218 233 233 223 225 231 233 234 231 235 240 242 249 257 260 208 208 223 220 209 189 196 205 208 217 212 213 215 211 214 207 199 188 169 155 151 152 151 151 151
206 210 213 216 236 244 231 222 207 210 229 240 246 239 230 238 242 252 228 199 215 235 219 217 205 207 211 223 231 220 219 214 208 211 210 208 200 191 174 164 162 160 158 159
210 197 215 211 226 244 219 210 208 225 245 250 227 221 231 217 253 237 213 211 225 226 223 214 212 212 216 219 229 226 219 209 208 212 212 208 210 205 195 187 180 177 176 174
224 217 225 215 231 229 240 227 225 231 231 223 235 226 215 221 238 207 201 205 216 215 225 214 211 218 212 219 230 236 194 211 213 208 211 210 210 212 209 206 200 195 196 195
223 221 231 238 239 237 232 225 217 217 217 231 209 207 219 231 224 186 189 197 201 206 203 199 204 214 224 225 231 227 215 214 216 214 211 214 213 214 214 214 212 210 210 208
223 227 226 232 239 241 228 217 205 193 205 213 215 216 216 219 215 207 214 215 215 213 218 209 219 225 218 222 227 216 212 214 216 213 214 218 222 219 220 221 223 222 219 217
208 211 216 225 227 222 227 226 216 216 210 204 203 221 230 220 224 234 235 231 226 222 227 226 217 205 211 223 225 219 207 211 207 204 207 214 223 227 226 226 226 224 221 221
Height
3125 3129 3127 3134 3140 3139 3145 3145 3146 3148 3148 3145 3143 3141 3140 3140 3137 3136 3135 3135 3134 3134 3133 3131 3128 3124 3121 3117 3113 3108 3104 3099 3095 3091 3085 3080 3077 3075 3072 3069 3064 3063 3065 3068
3120 3119 3127 3133 3136 3138 3140 3141 3143 3143 3143 3142 3139 3136 3135 3136 3134 3133 3132 3131 3130 3129 3129 3128 3125 3122 3119 3117 3112 3108 3104 3100 3097 3093 3088 3083 3080 3078 3074 3069 3067 3062 3064 3068
3111 3117 3124 3128 3130 3133 3135 3137 3138 3140 3140 3138 3135 3131 3131 3131 3131 3129 3128 3127 3125 3125 3125 3125 3123 3121 3118 3116 3111 3108 3105 3102 3100 3095 3091 3086 3084 3082 3079 3075 3070 3065 3068 3067
3112 3114 3118 3122 3125 3129 3130 3133 3135 3136 3136 3135 3134 3129 3128 3127 3127 3125 3124 3123 3122 3121 3121 3122 3121 3119 3117 3115 3111 3108 3106 3103 3102 3098 3094 3091 3089 3086 3083 3080 3077 3075 3072 3072
3101 3107 3111 3115 3120 3124 3127 3130 3131 3132 3131 3129 3129 3129 3124 3123 3122 3121 3120 3119 3117 3116 3117 3119 3119 3117 3116 3114 3111 3108 3107 3105 3104 3100 3098 3096 3094 3091 3089 3086 3083 3081 3079 3078
3100 3103 3108 3112 3117 3120 3124 3126 3127 3127 3126 3126 3124 3125 3121 3119 3119 3117 3116 3115 3113 3112 3113 3115 3116 3115 3114 3113 3110 3108 3108 3106 3106 3103 3101 3099 3098 3095 3090 3089 3087 3085 3084 3084
3091 3096 3102 3108 3112 3115 3118 3122 3123 3123 3121 3120 3119 3121 3117 3116 3115 3113 3112 3109 3108 3109 3110 3113 3114 3113 3112 3112 3110 3108 3108 3108 3107 3106 3104 3102 3100 3099 3095 3090 3089 3088 3089 3089
3083 3091 3092 3098 3104 3110 3112 3116 3117 3118 3116 3116 3117 3115 3113 3112 3112 3111 3108 3105 3103 3106 3108 3111 3112 3111 3111 3111 3110 3109 3109 3108 3108 3108 3106 3105 3103 3102 3100 3096 3095 3092 3094 3094
3075 3081 3086 3092 3099 3105 3107 3109 3114 3114 3114 3115 3112 3111 3109 3110 3109 3108 3105 3103 3104 3104 3107 3109 3110 3110 3111 3110 3109 3109 3110 3108 3108 3109 3107 3107 3106 3105 3104 3101 3102 3100 3101 3101
3068 3078 3080 3088 3094 3098 3100 3106 3108 3109 3110 3109 3106 3108 3107 3107 3107 3105 3103 3103 3104 3104 3106 3108 3109 3109 3110 3110 3109 3109 3110 3109 3108 3110 3108 3108 3108 3108 3107 3107 3107 3107 3107 3108
3063 3070 3076 3081 3082 3089 3095 3096 3100 3103 3103 3102 3103 3103 3104 3105 3105 3104 3103 3102 3102 3104 3105 3107 3108 3108 3109 3110 3110 3109 3110 3110 3109 3109 3109 3108 3108 3110 3110 3109 3111 3112 3113 3113
3053 3064 3069 3073 3077 3083 3086 3090 3094 3094 3097 3098 3099 3099 3101 3102 3102 3102 3101 3101 3101 3103 3105 3106 3107 3107 3109 3110 3110 3110 3110 3110 3110 3110 3110 3110 3110 3111 3112 3112 3112 3114 3116 3117
3046 3054 3063 3068 3073 3074 3076 3080 3085 3088 3091 3091 3094 3095 3097 3098 3099 3099 3098 3098 3099 3101 3103 3105 3105 3106 3107 3109 3110 3110 3110 3111 3110 3110 3111 3111 3112 3112 3114 3115 3114 3115 3117 3120
3041 3044 3043 3045 3054 3068 3070 3072 3078 3081 3083 3086 3086 3090 3092 3094 3095 3096 3096 3097 3098 3099 3101 3103 3104 3104 3106 3108 3109 3110 3111 3111 3111 3111 3111 3112 3113 3114 3115 3116 3117 3118 3119 3122
3034 3034 3041 3047 3055 3059 3062 3067 3070 3072 3077 3079 3083 3083 3087 3090 3091 3093 3093 3094 3094 3096 3098 3102 3103 3103 3104 3106 3108 3109 3110 3112 3112 3113 3112 3112 3113 3115 3116 3118 3119 3121 3123 3125
3026 3029 3037 3041 3048 3052 3054 3058 3063 3065 3069 3072 3077 3076 3082 3085 3087 3088 3089 3090 3091 3094 3096 3098 3100 3102 3103 3104 3107 3108 3110 3111 3113 3114 3114 3114 3114 3115 3117 3119 3121 3123 3125 3127
3019 3024 3030 3035 3041 3048 3043 3046 3052 3056 3061 3066 3069 3073 3076 3079 3081 3084 3084 3085 3087 3089 3092 3094 3097 3099 3101 3102 3105 3107 3108 3110 3112 3114 3115 3115 3115 3115 3117 3119 3121 3124 3126 3129
3013 3020 3026 3031 3035 3035 3030 3037 3044 3049 3054 3059 3063 3067 3070 3073 3076 3078 3079 3080 3083 3085 3088 3090 3093 3095 3099 3100 3102 3105 3107 3108 3111 3114 3115 3117 3117 3116 3117 3119 3122 3124 3127 3129
3009 3013 3020 3024 3027 3025 3024 3032 3036 3041 3045 3051 3055 3059 3063 3066 3069 3071 3072 3074 3078 3082 3085 3087 3090 3093 3095 3098 3099 3102 3105 3107 3109 3112 3115 3116 3118 3118 3119 3120 3122 3125 3127 3129
3005 3008 3015 3017 3020 3013 3021 3028 3034 3040 3037 3043 3048 3052 3056 3059 3062 3062 3065 3067 3073 3077 3081 3084 3087 3089 3091 3094 3096 3099 3102 3105 3108 3111 3114 3116 3118 3119 3120 3122 3124 3126 3128 3131
2998 3003 3007 3011 3014 3010 3016 3023 3030 3030 3036 3038 3043 3045 3048 3051 3056 3059 3061 3064 3067 3072 3076 3079 3082 3086 3088 3090 3093 3095 3099 3103 3107 3109 3111 3114 3117 3118 3120 3122 3125 3127 3130 3133
2992 2998 3001 3008 3010 3005 3011 3018 3019 3027 3030 3034 3035 3038 3043 3047 3050 3051 3056 3060 3063 3067 3070 3074 3078 3082 3084 3087 3089 3092 3095 3101 3103 3106 3109 3112 3115 3117 3120 3122 3124 3127 3130 3133
2989 2990 2994 2995 2992 3001 3006 3013 3021 3024 3028 3031 3033 3036 3040 3043 3045 3047 3049 3053 3058 3062 3064 3068 3072 3077 3080 3083 3086 3089 3092 3094 3098 3101 3105 3109 3112 3115 3118 3121 3124 3126 3129 3132
2981 2986 2989 2994 2989 2996 3006 3010 3014 3018 3023 3027 3029 3031 3034 3037 3041 3043 3046 3050 3053 3057 3059 3062 3066 3071 3075 3079 3082 3087 3089 3090 3093 3097 3101 3105 3108 3111 3115 3118 3121 3124 3127 3130
2973 2982 2982 2984 2987 2993 2997 3006 3010 3014 3018 3023 3026 3028 3031 3034 3036 3039 3041 3044 3048 3052 3055 3058 3062 3067 3071 3075 3079 3082 3085 3087 3089 3093 3096 3101 3105 3108 3111 3114 3118 3121 3124 3128
2963 2969 2973 2976 2985 2987 2992 3000 3005 3010 3014 3018 3021 3024 3028 3030 3032 3035 3037 3038 3041 3045 3051 3055 3058 3062 3066 3070 3074 3078 3081 3084 3086 3089 3092 3096 3099 3103 3106 3109 3113 3117 3120 3123